Location: Harbor Island
(32.3990°N, 80.4435°W)
Time: 05:23:11
(UTC-04:00)

Daily predictions for brighter satellites

Satellite Brightness Start Highest point End
(mag) Time Altitude Azimuth Time Altitude Azimuth Time Altitude Azimuth
COSMOS 2428 4.5 04:09:53 27° E 04:09:53 27° E 04:13:31 10° NE
Okean O Rocket 4.3 04:14:47 10° NE 04:16:33 17° ENE 04:16:33 17° ENE
FALCON 9 R/B 4.3 04:17:39 59° WNW 04:21:26 89° SSW 05:08:38 10° ESE
Lacrosse 4 Rocket 4.3 04:26:46 14° E 04:26:46 14° E 04:27:53 10° ESE
Cosmos 2360 Rocket 3.7 04:27:51 30° NNE 04:27:51 30° NNE 04:30:37 10° NNE
ADEOS II 3.6 04:32:11 10° NE 04:36:50 32° E 04:37:45 30° ESE
USA 229 DEB 4.3 04:50:46 41° SSE 04:52:38 51° ESE 04:59:15 10° NE
USA 229 4.3 04:50:50 40° SSE 04:52:44 51° ESE 04:59:20 10° NE
Cosmos 2333 Rocket 3.7 04:53:37 22° SSE 04:56:20 33° ESE 05:01:24 10° NE
PSLV R/B 4.1 05:04:33 10° NNE 05:08:50 55° E 05:08:52 55° ESE
Cosmos 2327 Rocket 4.3 05:07:24 10° NNW 05:13:36 66° W 05:13:53 66° WSW
EO 1 Del DPAF 4.3 05:13:26 31° SE 05:14:47 46° ENE 05:18:29 10° N
Nadezhda 1 Rocket 3.9 05:16:39 61° W 05:16:41 61° W 05:22:41 10° N
Cosmos 1610 Rocket 4.4 05:14:11 10° N 05:20:29 82° W 05:26:49 10° S
Meteor 1-12 Rocket 4.1 05:15:55 10° NNW 05:21:32 66° W 05:22:23 58° SW
Cosmos 2333 4.1 05:21:50 63° W 05:22:16 66° WNW 05:27:56 10° NNE
Cosmos 1570 Rocket 4.4 05:24:16 46° NW 05:24:16 46° NW 05:28:41 10° N
OTV 4 3.3 05:25:06 14° ESE 05:25:06 14° ESE 05:25:50 10° E
Hubble Space Telescope 2.6 05:24:27 22° SSE 05:24:27 22° SSE 05:27:19 10° ESE
Meteor 2-13 Rocket 4.3 05:18:11 10° NNW 05:24:16 66° W 05:27:43 27° SSW
Cosmos 468 Rocket 4.5 05:22:13 25° S 05:25:06 57° ESE 05:30:12 10° NNE
Meteor 1-13 Rocket 4.0 05:23:36 39° S 05:25:45 88° W 05:31:22 10° N
Tiangong 2 3.0 05:34:35 24° N 05:34:56 24° NNE 05:37:34 10° ENE
CZ-4B DEB 4.1 05:29:51 10° N 05:35:23 69° WNW 05:37:41 36° SSW
CZ-4B R/B 3.1 05:30:22 10° N 05:35:57 68° WNW 05:38:17 35° SW
GPS 2-04 Rocket1 2.9 05:36:09 55° SSE 05:36:18 56° SSE 05:40:05 10° E
IRS-P2 Rocket 4.4 05:32:42 10° N 05:37:54 75° WNW 05:40:28 31° SSW
Cosmos 1980 3.9 05:37:21 16° S 05:41:56 70° ESE 05:47:33 10° NNE
Cosmos 2341 Rocket 4.0 05:36:18 10° N 05:42:33 82° E 05:48:44 10° S
Cosmos 807 4.4 05:43:18 71° W 05:43:24 72° W 05:47:30 10° N
IRS-1C Rocket 4.3 05:39:48 10° N 05:44:52 49° WNW 05:46:22 38° WSW
ERS-2 2.3 05:42:47 10° NNE 05:46:29 69° ESE 05:48:54 20° S
IRAS Rocket 4.3 05:43:45 10° N 05:49:10 56° WNW 05:52:15 26° SW
CZ-2C R/B 3.6 05:44:50 10° S 05:49:25 74° WSW 05:53:58 10° NNW
Cosmos 2219 Rocket 2.2 05:48:29 32° SW 05:50:56 58° WNW 05:56:27 10° NNE
Cosmos 1763 Rocket 4.2 05:47:45 10° S 05:52:38 52° ESE 05:57:34 10° NNE
COSMOS 2428 3.5 05:51:56 29° W 05:52:48 30° WNW 05:57:47 10° N
Okean O Rocket 2.7 05:50:41 10° NNW 05:54:02 27° WNW 05:54:02 27° WNW
Cosmos 1025 Rocket 2.9 05:51:33 10° S 05:55:54 88° W 06:00:18 10° N
NOSS 0 Rocket 3.8 05:53:04 16° SSW 05:58:11 77° WNW 06:04:21 10° NNE
Meteor 1-23 Rocket 4.3 05:53:08 10° S 05:58:56 90° WSW 06:04:45 10° N
GENESIS II 4.2 05:57:23 34° SW 05:59:00 69° WNW 06:03:04 10° NNE
Cosmos 1437 3.1 05:57:43 10° S 06:00:57 66° E 06:04:12 10° NNE
Meteor 2-9 Rocket 4.4 05:55:20 10° N 06:00:59 76° E 06:06:26 10° SSE
Cosmos 1844 Rocket 2.5 05:57:33 10° NNW 06:03:06 72° WSW 06:08:37 10° SSE
Lacrosse 4 Rocket 2.1 06:03:25 31° WSW 06:03:37 31° WSW 06:07:27 10° S
DELTA 2 R/B (1) 4.5 06:02:43 19° WNW 06:06:18 40° N 06:11:30 10° ENE
Cosmos 841 Rocket 4.1 06:01:28 10° S 06:06:31 58° ESE 06:11:33 10° NNE
Cosmos 1892 Rocket 4.2 06:02:23 10° S 06:06:37 56° E 06:10:54 10° NNE
Okean-O 2.5 06:03:55 10° N 06:08:21 78° WNW 06:12:46 10° SSW
USA 116 3.9 06:05:52 10° SSE 06:09:54 89° WSW 06:14:33 10° NNW
Cosmos 2285 Rocket 4.1 06:04:02 10° SSW 06:10:14 58° WNW 06:16:36 10° N
EXPRESS MD2 3.4 06:07:03 19° SW 06:11:01 81° NW 06:14:11 10° NE
NOAA 6 4.3 06:08:55 10° NNE 06:14:01 72° ESE 06:19:07 10° S
ADEOS II 3.1 06:12:08 10° NNW 06:16:21 25° WNW 06:18:43 18° WSW
Cosmos 1814 Rocket 4.0 06:12:08 10° SSW 06:17:15 58° WNW 06:22:21 10° N
ISS -1.4 06:19:18 10° SSW 06:19:18 10° SSW 06:19:22 10° SSW
Cosmos 2278 Rocket 2.8 06:13:08 10° NNW 06:18:44 60° ENE 06:24:18 10° SSE
Cosmos 2237 Rocket 2.3 06:13:16 10° SSW 06:18:50 59° WNW 06:24:28 10° NNE
Cosmos 2298 Rocket 4.1 06:14:08 10° NNW 06:19:30 87° ENE 06:24:49 10° SSE
Cosmos 1441 Rocket 3.9 06:16:11 10° S 06:20:02 58° E 06:23:57 10° NNE
Gblst 52 Del rocket 4.4 06:16:27 10° NW 06:22:20 76° SW 06:29:03 10° SE
Aureole 2 Rocket 3.0 06:19:54 16° SW 06:22:31 39° WNW 06:25:47 10° N
Cosmos 1959 Rocket 4.5 06:17:17 10° N 06:23:25 88° E 06:29:34 10° S
Cosmos 1515 4.0 06:21:04 10° S 06:24:53 71° E 06:28:43 10° N
Meteor 2-4 Rocket 4.2 06:19:49 10° SW 06:25:02 38° WNW 06:30:08 10° N
Cosmos 405 Rocket 3.1 06:22:20 10° SSW 06:26:14 45° W 06:30:07 10° N
Cosmos 371 Rocket 3.3 06:21:32 10° SSW 06:26:22 87° E 06:31:15 10° NNE
Meteor 1-15 Rocket 4.3 06:23:16 10° N 06:29:13 84° W 06:35:07 10° S
Okean 2 3.7 06:25:57 10° SSW 06:29:56 45° W 06:33:57 10° N
USA 215 3.3 06:23:34 10° SSE 06:30:02 62° SW 06:36:31 10° NW
Cosmos 332 Rocket 3.8 06:25:12 10° SSW 06:30:03 63° WNW 06:34:55 10° N
Cosmos 1666 3.6 06:28:08 10° NNW 06:31:29 28° W 06:34:50 10° SSW
ATLAS 5 CENTAUR R/B 2.9 06:26:06 10° NNW 06:32:16 70° ENE 06:38:52 10° SE
GOES 2 Rocket 4.0 06:30:18 14° W 06:34:23 52° S 06:40:35 10° ESE
Cosmos 1346 3.2 06:32:06 10° S 06:34:55 71° E 06:37:44 10° NNE
Cosmos 2366 rocket 4.0 06:30:31 10° N 06:36:54 82° W 06:43:14 10° S
Cosmos 1743 4.5 06:36:57 10° WNW 06:38:45 13° W 06:40:33 10° WSW
OAO 3 Copernicus 4.5 06:35:01 10° WNW 06:39:58 70° N 06:45:00 10° E
Cosmos 2333 Rocket 3.2 06:35:45 10° WSW 06:40:33 28° WNW 06:45:25 10° N
SKYMED 2 3.8 06:37:27 10° SSE 06:41:46 78° ENE 06:46:07 10° N
Cosmos 2058 Rocket 3.1 06:42:21 10° N 06:46:51 89° WSW 06:51:16 10° S
Cosmos 1867 3.5 06:41:55 10° NNW 06:47:21 75° WSW 06:52:44 10° SSE
Meteor 1-31 Rocket 4.1 06:45:03 10° NNW 06:47:51 20° WNW 06:50:39 10° WSW
CZ-4 R/B 4.4 06:45:36 10° NE 06:48:28 20° E 06:51:19 10° SE
NOSS 3-1 (A) 3.4 06:50:09 10° SW 06:55:47 67° WNW 07:02:02 10° NNE
Nadezhda 3 Rocket 4.1 06:51:41 10° S 06:57:49 89° E 07:04:01 10° N
